Location: Unspecified
(43.4680°N, 87.1740°E)
Time: 21:14:42
(UTC+00:00)

MetOp-A - Pass Details

Date: 17 April 2021
Orbit: 819 x 821 km, 98.5° (Epoch: 12 May)

Event Time Altitude Azimuth Distance (km) Brightness Sun altitude
Rises 13:48:46 0° 166° (SSE) 3,339 6.9 -9.7°
Reaches altitude 10° 13:51:06 10° 167° (SSE) 2,410 6.2 -10.1°
Maximum altitude 13:56:27 84° 256° (WSW) 831 4.2 -10.9°
Drops below altitude 10° 14:01:51 10° 345° (NNW) 2,426 7.2 -11.8°
Sets 14:04:12 0° 346° (NNW) 3,362 8.0 -12.2°
